Change the Weather History Date:

Tuesday, October 8, 2013

  Actual Average Record
Temperature  
Mean Temperature 50 °F -  
Max Temperature 59 °F - - ()
Min Temperature 41 °F - - ()
Degree Days  
Heating Degree Days 15    
Moisture  
Dew Point 40 °F    
Average Humidity 70    
Maximum Humidity 92    
Minimum Humidity 38    
Precipitation  
Precipitation 0.00 in - - ()
Sea Level Pressure  
Sea Level Pressure 30.19 in    
Wind  
Wind Speed 7 mph ()    
Max Wind Speed 15 mph    
Max Gust Speed 28 mph    
T = Trace of Precipitation, MM = Missing Value Source: Averaged Metar Reports

Daily Weather History Graph

Daily Weather History Graph

Search for Another Location

Airport or City:

Trip Planner

Search our weather history database for the weather conditions in past years. The results will help you decide how hot, cold, wet, or windy it might be!

Date:

Astronomy

Oct. 08, 2013 Rise Set
Actual Time 7:01 AM EDT 6:20 PM EDT
Civil Twilight 6:31 AM EDT 6:49 PM EDT
Nautical Twilight 5:57 AM EDT 7:24 PM EDT
Astronomical Twilight 5:22 AM EDT 7:59 PM EDT
Moon 11:04 AM EDT (10/8) 8:42 PM EDT (10/8)
Length of Visible Light 12h 18m
Length of Day
11h 18m
Waxing Crescent, 16% of the Moon is Illuminated
Oct 8
Waxing Crescent
Oct 11
First Quarter
Oct 18
Full
Oct 26
Last Quarter
Nov 3
New

Hourly Weather History & Observations

Time (EDT) Temp. Windchill Dew Point Humidity Pressure Visibility Wind Dir Wind Speed Gust Speed Precip Events Conditions
12:00 AM 54.9 °F - 46.2 °F 73% 29.78 in - SW 15.0 mph 27.6 mph N/A   Unknown
1:00 AM 50.2 °F - 41.5 °F 72% 29.86 in - WSW 12.7 mph 24.2 mph N/A   Unknown
2:00 AM 47 °F - 40 °F 68% 29.93 in - West 9.2 mph - -  
2:00 AM 47.3 °F - 39.7 °F 75% 29.93 in - West 9.2 mph - N/A   Unknown
3:00 AM 45.7 °F 42.0 °F 38.5 °F 76% 29.97 in - West 6.9 mph - N/A   Unknown
4:00 AM 43.9 °F 40.5 °F 39.4 °F 84% 30.02 in - WSW 5.8 mph - N/A   Unknown
5:00 AM 43.9 °F 41.3 °F 39.4 °F 84% 30.06 in - WSW 4.6 mph - N/A   Unknown
6:00 AM 44.4 °F 42.0 °F 39.6 °F 83% 30.10 in - SW 4.6 mph - N/A   Unknown
7:00 AM 42.6 °F 39.9 °F 39.4 °F 88% 30.14 in - WSW 4.6 mph - N/A   Unknown
8:00 AM 45 °F - 41 °F 80% 30.17 in - WSW 5.8 mph - -  
8:00 AM 44.8 °F 41.6 °F 40.8 °F 86% 30.17 in - WSW 5.8 mph - N/A   Unknown
9:00 AM 48.0 °F - 41.4 °F 78% 30.21 in - West 5.8 mph - N/A   Unknown
10:00 AM 50.2 °F - 38.1 °F 63% 30.23 in - WNW 10.4 mph - N/A   Unknown
11:00 AM 50.5 °F - 37.6 °F 61% 30.26 in - WNW 8.1 mph - N/A   Unknown
12:00 PM 53.8 °F - 38.3 °F 56% 30.26 in - West 3.5 mph - N/A   Unknown
1:00 PM 56.1 °F - 39.4 °F 53% 30.28 in - WSW 6.9 mph - N/A   Unknown
2:00 PM 57 °F - 38 °F 38% 30.27 in - West 6.9 mph - -  
2:00 PM 57.2 °F - 38.5 °F 50% 30.27 in - West 6.9 mph - N/A   Unknown
3:00 PM 57.9 °F - 37.8 °F 47% 30.28 in - WSW 5.8 mph - N/A   Unknown
4:00 PM 59.2 °F - 38.3 °F 46% 30.28 in - WSW 4.6 mph - N/A   Unknown
5:00 PM 58.1 °F - 40.1 °F 51% 30.30 in - SW 5.8 mph - N/A   Unknown
6:00 PM 54.5 °F - 40.6 °F 60% 30.33 in - SW 6.9 mph - N/A   Unknown
7:00 PM 49.5 °F - 40.8 °F 72% 30.35 in - SW 3.5 mph - N/A   Unknown
8:00 PM 47 °F - 40 °F 71% 30.37 in - SW 3.5 mph - -  
8:00 PM 47.3 °F - 40.5 °F 77% 30.37 in - SW 3.5 mph - N/A   Unknown
9:00 PM 45.9 °F - 40.1 °F 80% 30.38 in - SW 2.3 mph - N/A   Unknown
10:00 PM 41.5 °F - 38.5 °F 89% 30.39 in - West 1.2 mph - N/A   Unknown
11:00 PM 42.4 °F - 40.3 °F 92% 30.39 in - Calm Calm - N/A   Unknown